Miscellaneous Local Product
Issued by NWS Hastings, NE

Home | Current Version | Previous Version | Graphics & Text | Print | Product List | Glossary On
Versions: 1 2 3 4 5 6 7 8 9 10 11 12 13 14 15 16 17 18 19 20 21 22 23 24 25 26 27 28 29 30 31 32 33 34 35 36 37 38 39 40 41 42 43 44 45 46 47 48 49 50
000
AXUS43 KGID 280102
MISGRI

GID CWA HOURLY WEATHER ROUNDUP
NATIONAL WEATHER SERVICE HASTINGS NE
800 PM CDT FRI MAR 27 2015

NOTE: "FAIR" INDICATES FEW OR NO CLOUDS BELOW 12,000 FEET WITH NO
SIGNIFICANT WEATHER AND/OR OBSTRUCTIONS TO VISIBILITY.

...SOUTH CENTRAL NEBRASKA...

CITY           SKY/WX    TMP DP  RH WIND       PRES   REMARKS
GRAND ISLAND   MOCLDY    40  26  57 SE9       30.02F WCI  34
HASTINGS       CLOUDY    42  25  50 S9        30.00S
KEARNEY        CLOUDY    46  28  49 S10       29.98F
ORD            MOCLDY    44  27  51 SE7       29.96S
YORK           MOCLDY    36  27  69 SE8       30.05F WCI  29
AURORA         MOCLDY    38  25  60 SE9       30.02F WCI  31
LEXINGTON      CLOUDY    53  36  51 SE10      29.96S
HOLDREGE       CLOUDY    51  33  49 S12       29.97F
HEBRON         MOCLDY    38  24  56 SE5       30.06F WCI  34

...NEBRASKA PANHANDLE...

CITY           SKY/WX    TMP DP  RH WIND       PRES   REMARKS
CHADRON        PTCLDY    59  36  42 N7        29.95R
ALLIANCE       CLOUDY    60  33  36 NW8       29.96S
SCOTTSBLUFF    MOCLDY    67  32  27 N14       29.98R
SIDNEY         PTCLDY    61  32  33 N8        30.01R

...WESTERN AND NORTH CENTRAL NEBRASKA...

CITY           SKY/WX    TMP DP  RH WIND       PRES   REMARKS
VALENTINE      PTCLDY    57  33  40 NW5       29.91S
AINSWORTH      MOCLDY    56  35  43 NW8       29.91R
ONEILL         MOCLDY    38  31  76 SE10      29.97S WCI  31
BROKEN BOW     CLOUDY    51  37  58 S5        29.94F
IMPERIAL       PTCLDY    65  35  33 N10       29.95S
NORTH PLATTE   CLOUDY    58  36  43 NE10      29.94R
MCCOOK         MOCLDY    66  37  34 SW5       29.92S

...EASTERN NEBRASKA...

CITY           SKY/WX    TMP DP  RH WIND       PRES   REMARKS
NORFOLK        CLOUDY    34  28  79 SE13      30.04F WCI  25
SO SIOUX CITY  CLOUDY    34  23  64 SE7       30.10F WCI  28
TEKAMAH        CLOUDY    36  21  54 SE7       30.11F WCI  30
COLUMBUS       CLOUDY    36  21  55 SE10      30.08F WCI  28
ALBION         MOCLDY    35  26  70 SE10      30.01F WCI  27
OMAHA EPPLEY   CLOUDY    38  15  39 CALM      30.13F
OFFUTT AFB     CLOUDY    37  16  42 SW5       30.12F WCI  34
MILLARD        CLOUDY    37  20  50 SE3       30.13F
LINCOLN        CLOUDY    38  23  55 SE9       30.12S WCI  31
NEBRASKA CITY  CLOUDY    37  19  49 CALM      30.13F
BEATRICE       CLOUDY    38  24  56 SE6       30.09F WCI  34
FALLS CITY     CLOUDY    38  20  48 CALM      30.14F

...NORTHERN KANSAS...

CITY           SKY/WX    TMP DP  RH WIND       PRES   REMARKS
GOODLAND       PTCLDY    58  37  45 NE3       30.00S
HILL CITY      PTCLDY    57  35  43 S5        29.96F
NORTON         PTCLDY    55  32  41 SE10      29.94F
PHILLIPSBURG   CLEAR     55  36  47 SE7       29.98F
SMITH CENTER   CLEAR     48  30  49 SE10      30.00F
BELOIT         CLEAR     46  25  42 SE13      30.02F
HAYS           PTCLDY    52  34  50 S10       30.00F
RUSSELL        PTCLDY    51  34  52 S10       30.00F
CONCORDIA      MOCLDY    42  24  49 SE9       30.05F
SALINA         CLOUDY    48  26  42 SE9       30.07F
TOPEKA         CLOUDY    42  21  43 NE8       30.16S



USA.gov is the U.S. government's official web portal to all federal, state and local government web resources and services.